Tracking 31027 objects as of 19-Jul-2025
HD Live streaming from Space Station
objects crossing your sky now

CZ-2D DEB

Track CZ-2D DEB now!
10-day predictions


NORAD ID: 38180
Int'l Code: 2011-068H
Perigee: 720.3 km
Apogee: 919.7 km
Inclination: 98.9 °
Period: 101.1 minutes
Semi major axis: 7190 km
RCS: 0.0013 m2 (small)
Launch date: November 20, 2011
Source: People's Republic of China (PRC)
Launch site: Jiuquan Satellite Launch Center, China (JSC)

Note: This is SATELLITE DEBRIS
Your satellite tracking list
SL-12 R/B(AUX MOTOR)
Track 1 satellite(s)




NASA's NSSDC Master Catalog

Two Line Element Set (TLE):
1 38180U 11068H   25198.86472402  .00000655  00000-0  27843-3 0  9997
2 38180  98.9029 216.1971 0138641 313.0299 169.5011 14.23706820703653
Source of the keplerian elements: AFSPC